Regional Weather Roundup
Issued by NWS Newport/Morehead, NC

Current Version | Previous Version | Text Only | Print | Product List | Glossary Off
Versions: 1 2 3 4 5 6 7 8 9 10 11 12 13 14 15 16 17 18 19 20 21 22 23 24 25 26 27 28 29 30 31 32 33 34 35 36 37 38 39 40 41 42 43 44 45 46 47 48 49 50

000
ASUS42 KMHX 041128
RWRMHX
WEATHER ROUNDUP FOR EASTERN NORTH CAROLINA
NATIONAL WEATHER SERVICE NEWPORT/MOREHEAD CITY NC
600 AM EST WED MAR 04 2015

NOTE: "FAIR" INDICATES FEW OR NO CLOUDS BELOW 12,000 FEET
WITH NO SIGNIFICANT WEATHER AND/OR OBSTRUCTIONS TO VISIBILITY

NCZ015>017-031-032-045>047-102-103-041200-
NORTH COAST

CITY           SKY/WX    TMP DP  RH WIND       PRES   REMARKS
EDENTON        FOG       47  47  99 SW5       30.00R VSB 1/2
ELIZABETH CITY FOG       52  52 100 SW10      29.99S VSB 1
KITTY HAWK     CLOUDY    59  59 100 SW10G16   29.98R FOG
MANTEO         CLOUDY    55  55 100 SW16      29.99S

$$

NCZ045>047-081-094-103-104-041200-
CENTRAL COAST

CITY           SKY/WX    TMP DP  RH WIND       PRES   REMARKS
FRISCO         FOG       55  55 100 SW9       30.04R VSB 1/4
SWANQUARTER      N/A     52 N/A N/A S6        30.00R

$$

NCZ095-097-098-100-101-041200-
SOUTHERN COAST

CITY           SKY/WX    TMP DP  RH WIND       PRES   REMARKS
BEAUFORT       FOG       54  54 100 SW12      30.06R VSB 1/2
CEDAR ISLAND     N/A     59 N/A N/A S15G21    30.06S
JACKSONVILLE   CLOUDY    63  61  93 SW17G26   30.06R VSB 1/8
PINEY ISLAND     N/A    N/A N/A N/A MISG      30.04R
WILMINGTON     CLOUDY    60  60 100 SW10      30.08R FOG


$$

NCZ011>013-027>030-043-044-078>080-089-090>093-098-041200-
COASTAL PLAIN

CITY           SKY/WX    TMP DP  RH WIND       PRES   REMARKS
AHOSKIE        FOG       44  43  98 CALM      30.00R VSB 1
CLINTON        FOG       44  44 100 CALM      30.06R VSB 1/2
ELIZABETHTOWN  CLOUDY    57  57 100 SW14      30.05R
GOLDSBORO      FOG       45  45 100 S5        30.01S VSB 3/4
GREENVILLE     FOG       46  46 100 SW10G18   30.03F VSB 1
HAVELOCK       FOG       60  58  92 SW14      30.05R VSB 3/4
KENANSVILLE    CLOUDY    52  51  97 W6        30.05R FOG
KINSTON        NOT AVBL
NEW BERN       CLOUDY    64  62  93 SW18G26   30.04R
RICHLANDS      CLOUDY    59  55  88 SW16G28   30.05F
ROCKY MOUNT    CLOUDY    46  46 100 SW13      30.01R FOG
WASHINGTON     FOG       49  49  99 SW8       30.03S VSB 1/2
WHITEVILLE     CLOUDY    55  54  97 SW7       30.06S FOG

$$

AMZ130-135-150-152-154-156-158-170-250-252-270-ANZ085-086-088-633-658-670-041200-
MARINE OBSERVATIONS

STATION/POSITION TIME  TEMP    WIND        PRES    WAVE   SWELL
                       AIR SEA DIR/SP/G            HT/PER HT/PER
                 (UTC) (F)     (DEG/KT/KT) (MB)    (FT/S) (FT/S)
CHESAPEAKE LIGHT 1000   45     220/ 26/ 28 1013.6
64 E VA BEACH    1050   56 56  230/ 14/ 17 1014.3    6/ 8   3/ 8
DUCK             1100   49 34  240/  9/ 11 1014.6
2 E DUCK         1111      35                N/A     5/ 7
10 NE DUCK       1052      37                N/A     5/ 7
OREGON INLET     1100   50 43  200/ 16/ 18 1015.8
HATTERAS CG      1100   55 44  220/ 11/ 14 1017.2
CAPE LOOKOUT     1000   58     200/ 11/ 13 1017.2
BEAUFORT LAB     1100   54 44  240/  5/  8 1017.0
27 SE WRIGHTSVLE NOT AVBL
5 SE WRIGHTSVLE  NOT AVBL
225 S CAPE HAT   1050   71 73  200/ 17/ 21 1022.2    6/ 9   3/ 9
41 SE CHARLESTON 1050   69 68  230/ 10/ 12 1019.4    4/ 7   3/ 7

$$



USA.gov is the U.S. government's official web portal to all federal, state and local government web resources and services.